Miscellaneous Local Product
Issued by NWS North Platte, NE

Home | Current Version | Previous Version | Text Only | Print | Product List | Glossary On
Versions: 1 2 3 4 5 6 7 8 9 10 11 12 13 14 15 16 17 18 19 20 21 22 23 24 25 26 27 28 29 30 31 32 33 34 35 36 37 38 39 40 41 42 43 44 45 46 47 48 49 50
000
AXUS43 KLBF 290310
MISLBF


WESTERN AND NORTH CENTRAL NEBRASKA HOURLY WEATHER ROUNDUP
NATIONAL WEATHER SERVICE NORTH PLATTE NE
1000 PM CDT SUN MAY 28 2017

NOTE: "FAIR" INDICATES FEW OR NO CLOUDS BELOW 12,000 FEET WITH NO
SIGNIFICANT WEATHER AND/OR OBSTRUCTIONS TO VISIBILITY.

NOTE: STATIONS NOT REPORTING VARIABLES SUCH AS SKY/WEATHER OR
PRESSURE ARE PROVIDED BY RAWS AND APRS NETWORKS AND ARE NOT UNDER
NATIONAL WEATHER SERVICE QUALITY CONTROL.

...OBSERVATIONS IN AND NEAR THE EASTERN PANHANDLE OF NEBRASKA...

CITY           SKY/WX    TMP DP  RH WIND       PRES   REMARKS
PINE RIDGE     CLOUDY    51  50  96 SW6       30.08S
GORDON         FAIR      52  47  83 W9        30.08R
CHADRON        CLOUDY    52  48  86 W12       30.11R
ALLIANCE       LGT RAIN  52  47  83 NE12      30.15S
SIDNEY         CLEAR     47  43  86 SW5       30.17R
CRESCENT LAKE    N/A     54  45  72 N13G20      N/A
$$

...OBSERVATIONS IN NORTHERN NEBRASKA AND FAR SOUTHERN SOUTH DAKOTA...

CITY           SKY/WX    TMP DP  RH WIND       PRES   REMARKS
WINNER         FAIR      60  48  64 W15       29.95R
VALENTINE      CLEAR     54  46  74 W7        30.01S
THEDFORD       MOCLDY    56  47  72 W3        30.06F
AINSWORTH      CLOUDY    55  49  80 W7        30.01S
O`NEILL        CLOUDY    63  44  48 W9        29.96R
ORD            PTCLDY    65  41  41 NW25G39   29.98R
BROKEN BOW     PTCLDY    63  44  50 N24G35    30.03R
VALENTINE NWR    N/A     55  48  77 W5G26       N/A
HALSEY           N/A     57  46  67 NW9G25      N/A
BUTTE            N/A     60  45  58 SW12        N/A
CHAMBERS         N/A     64  43  45 W3          N/A
EWING            N/A     65  45  48 NW6         N/A
$$

...OBSERVATIONS IN SOUTHWEST NEBRASKA AND FAR NORTHEAST COLORADO...

CITY           SKY/WX    TMP DP  RH WIND       PRES   REMARKS
WRAY           FAIR      59  41  51 N9        30.14R
IMPERIAL       MOCLDY    58  48  69 N8        30.10R
OGALLALA       MOCLDY    59  50  71 CALM      30.10S
NORTH PLATTE   CLOUDY    57  53  86 W7        30.06S
MCCOOK         PTCLDY    65  47  52 N21G33    30.06R
LEXINGTON      CLOUDY    62  51  67 NW12G18   30.05R
STAPLETON        N/A     56  46  70 CALM        N/A
GOTHENBURG       N/A     65  42  43 N3          N/A
CALLAWAY         N/A     62  44  52 NW8         N/A
$$

...OBSERVATIONS IN CENTRAL LINCOLN COUNTY AREA...

CITY           SKY/WX    TMP DP  RH WIND       PRES   REMARKS
N.P. AIRPORT   CLOUDY    57  53  86 W7        30.06S
N.P. DOWNTOWN    N/A     60  52  74 CALM        N/A
N.P. SOUTHEAST   N/A     60  51  72 CALM        N/A
N.P. HILLCREST   N/A     60  48  64 NW8G15      N/A
$$

...SOME OBSERVATIONS FROM AROUND THE REGION...

CITY           SKY/WX    TMP DP  RH WIND       PRES   REMARKS
DENVER         PTCLDY    57  40  52 NE20      30.22R
LIMON          CLEAR     50  44  80 CALM      30.22R
ASPEN          CLOUDY    49  32  52 S5        30.28R
LARAMIE        CLEAR     50  35  56 N10       30.28R
CASPER         CLOUDY    49  45  86 SE8       30.26F
CHEYENNE       CLOUDY    55  39  54 N5        30.25S
SCOTTSBLUFF    MOCLDY    55  45  68 NE13G23   30.17R
GRAND ISLAND   CLEAR     63  47  55 W5        29.97S
OMAHA          PTCLDY    62  50  64 CALM      29.89S
SIOUX FALLS    CLOUDY    54  49  83 N5        29.88R
PIERRE         PTCLDY    62  36  37 N10       29.92R
RAPID CITY     CLOUDY    56  42  59 NW9       30.05R
BISMARCK       PTCLDY    58  41  53 NW10      29.94R
KANSAS CITY    CLEAR     67  52  58 W6        29.91R
HILL CITY      CLEAR     61  55  81 NW3       30.03R
WICHITA        CLEAR     69  47  45 NW6       29.98S
DODGE CITY     CLEAR     63  42  46 S6        30.06S
OKLAHOMA CITY  PTCLDY    68  43  40 CALM      30.00R
DALLAS         CLOUDY    75  70  84 CALM      29.97R
AMARILLO       CLEAR     61  39  44 NE8       30.15R
$$




USA.gov is the U.S. government's official web portal to all federal, state and local government web resources and services.